Location: �perlecques
(50.8057°N, 2.1521°E)
Time: 22:47:21
(UTC+00:00)

Altair - Visible Passes

Search period start: 28 July 2021 00:00
Search period end: 07 August 2021 00:00
Orbit: 1501 x 1682 km, 47.2° (Epoch: 28 July)

Date Brightness Start Highest point End Pass type
(mag) Time Alt. Az. Time Alt. Az. Time Alt. Az.
28 Jul 8.4 01:38:53 18° S 01:43:46 29° SE 01:51:12 10° E visible
29 Jul 8.5 01:14:50 20° S 01:18:44 27° SE 01:25:56 10° E visible
29 Jul 7.7 03:13:01 10° SW 03:22:02 57° SSE 03:30:56 10° E visible
30 Jul 8.5 00:50:47 21° SSE 00:53:43 25° SE 01:00:40 10° E visible
30 Jul 7.7 02:48:46 13° SW 02:56:56 55° SSE 03:05:47 10° E visible
31 Jul 8.5 00:26:40 21° SSE 00:28:41 23° SE 00:35:22 10° E visible
31 Jul 7.7 02:24:40 17° SW 02:31:50 53° SSE 02:40:37 10° E visible
01 Aug 8.6 00:02:32 21° SE 00:03:41 21° SE 00:10:03 10° E visible
01 Aug 7.7 02:00:31 21° SW 02:06:44 51° SSE 02:15:28 10° E visible
01 Aug 8.6 23:38:20 19° SE 23:38:40 19° SE 23:44:40 10° E visible
02 Aug 7.7 01:36:19 25° SSW 01:41:38 48° SSE 01:50:19 10° E visible
02 Aug 7.5 03:36:22 10° WSW 03:45:38 72° S 03:54:45 10° E visible
02 Aug 8.7 23:14:06 18° SE 23:14:06 18° SE 23:19:15 10° E visible
03 Aug 7.8 01:12:05 29° SSW 01:16:33 46° SSE 01:25:09 10° E visible
03 Aug 7.5 03:11:12 10° WSW 03:20:30 71° S 03:29:36 10° E visible
03 Aug 8.8 22:49:50 16° ESE 22:49:50 16° ESE 22:53:46 10° E visible
04 Aug 7.8 00:47:48 32° SSW 00:51:28 44° SSE 01:00:00 10° E visible
04 Aug 7.5 02:46:04 10° WSW 02:55:21 70° S 03:04:28 10° E visible
04 Aug 8.9 22:25:29 14° ESE 22:25:29 14° ESE 22:28:10 10° E visible
05 Aug 7.8 00:23:27 34° S 00:26:23 42° SSE 00:34:50 10° E visible
05 Aug 7.4 02:21:25 12° WSW 02:30:13 69° S 02:39:19 10° E visible
05 Aug 9.0 22:01:04 12° ESE 22:01:04 12° ESE 22:02:26 10° E visible
05 Aug 7.9 23:59:02 35° S 00:01:18 39° SE 00:09:39 10° E visible
06 Aug 7.4 01:57:00 15° WSW 02:05:05 68° SSE 02:14:10 10° E visible
06 Aug 7.9 23:34:30 35° SSE 23:36:14 37° SE 23:44:28 10° E visible
